Regional Weather Roundup
Issued by NWS New Orleans/Baton Rouge, LA

Home | Current Version | Previous Version | Text Only | Print | Product List | Glossary On
Versions: 1 2 3 4 5 6 7 8 9 10 11 12 13 14 15 16 17 18 19 20 21 22 23 24 25 26 27
000
ASUS44 KLIX 310511
RWRLIX
NEW ORLEANS REGIONAL WEATHER ROUNDUP
NATIONAL WEATHER SERVICE NEW ORLEANS LA
1200 AM CDT TUE MAY 31 2016

NOTE: "FAIR" INDICATES FEW OR NO CLOUDS BELOW 12,000 FEET WITH NO
      SIGNIFICANT WEATHER AND/OR OBSTRUCTIONS TO VISIBILITY.
      SKY/WX - SKY CONDITION AND SIGNIFICANT WEATHER.
      TMP - AIR TEMPERATURE.     DP    - DEWPOINT TEMPERATURE.
      RH  - RELATIVE HUMIDITY.   PRES  - PRESSURE.
      HI  - HEAT INDEX.          WCI   - WIND CHILL INDEX.

*  THESE STATIONS ARE NOT NWS OR FAA STATIONS AND ARE NOT UNDER
   NWS QUALITY CONTROL.

LAZ038-040-048-061>063-065>067-069-310600-
SOUTHEAST LOUISIANA

CITY           SKY/WX    TMP DP  RH WIND       PRES   REMARKS
N.O. AUDUBON     N/A     76  72  88 MISG        N/A
N.O. INTL ARPT PTCLDY    76  70  82 S3        29.96S
N.O. LAKEFRONT PTCLDY    80  69  69 SW7       29.96F
N.O. DOWNTOWN*   N/A     79  70  74 S5        29.96F
RESERVE*         N/A     75  72  89 CALM      29.96S
SLIDELL        CLOUDY    74  72  93 CALM      29.95F
BATON ROUGE    CLEAR     72  67  84 W3        29.96F
BOOTHVILLE     PTCLDY    77  72  84 W5        29.97F
BELLE CHASSE   CLEAR     71  69  93 CALM      29.95F
BOGALUSA*        N/A     74  69  83 CALM      29.97F
GALLIANO*      CLEAR     69  67  94 CALM      29.97S
NEW ROADS*       N/A     71  67  87 CALM      29.97S
GONZALES*        N/A     72  72  99 CALM      29.96R
HAMMOND*       PTCLDY    72  68  88 CALM      29.95S
HOUMA*         CLEAR     72  71  98 CALM      29.97S
PORT FOURCHON* CLEAR     81  70  69 S5        29.96F

$$

MSZ070-080>082-310600-
SOUTHERN MISSISSIPPI

CITY           SKY/WX    TMP DP  RH WIND       PRES   REMARKS
MCCOMB         PTCLDY    68  66  93 CALM      29.96F
GULFPORT       CLOUDY    77  73  87 CALM      29.95S
BILOXI         CLOUDY    80  74  83 W1        29.94F
PASCAGOULA     CLOUDY    70  69  97 CALM      29.95F

$$

COASTAL OBSERVATIONS
LAKE AND NEARSHORE STATIONS

STATION/POSITION TIME  TEMP    WIND        PRES    WAVE
                       AIR SEA DIR/SP/G            HT/PER
                 (UTC) (F)     (DEG/KT/KT) (MB)    (FT/S)
PASCAGOULA       0400   77     260/  3/  4 1014.0
WAVELAND YACHT   0400   79 82  250/  3/  4 1014.5
GRAND ISLE       0400   80 84  230/  4/  5 1015.0
SOUTHWEST PASS   0400          220/  5/  5   N/A
NEW CANAL        0400   80 81  200/  4/  5 1014.0
SHELL BEACH      0400   79 83  230/  3/  4 1014.9

OFFSHORE STATIONS

STATION/POSITION TIME  TEMP    WIND        PRES    WAVE
                       AIR SEA DIR/SP/G            HT/PER
                 (UTC) (F)     (DEG/KT/KT) (MB)    (FT/S)
64 S DAUPHIN ISL 0400   80 80  250/  6/  8 1014.5

$$





USA.gov is the U.S. government's official web portal to all federal, state and local government web resources and services.